Lexington Weather

Lexington, Massachusetts, USA

78°F
7/25/2024 12:58pm 
  • Lexington Conditions: Mostly cloudy
  • Temperature: 78.3°F / 25.7°CWarmer 0.6°F than last hour.
  • Dew Point: 72.7°FIncreased 0.2°Fsince last hour.
  • Relative Humidity: 83%Decreased 1.0% since last hour.
  • Wind: Wind from WSW WSW 1 mph, 10-min avg: 1 mph, gust: 4 mph
  • Barometer: 29.93 in Steady
  • Visibility: 10 miles
  • Rain Today: 0.00 in
  •   

Regional Weather Roundup
for Boston, MA

        
000
ASUS41 KBOX 190210
RWRBOX

REGIONAL WEATHER ROUNDUP
NATIONAL WEATHER SERVICE BOSTON/NORTON MA
1000 PM EDT THU JUL 18 2024

NOTE:  "FAIR" INDICATES FEW OR NO CLOUDS BELOW 12,000 FEET WITH NO 
SIGNIFICANT WEATHER AND/OR OBSTRUCTIONS TO VISIBILITY.

MAZALL-190300-
EASTERN MASSACHUSETTS
  
CITY           SKY/WX    TMP DP  RH WIND       PRES   REMARKS
BOSTON         MOCLDY    78  59  51 W12       29.92R                  
BEVERLY        PTCLDY    75  60  59 W5        29.91R                  
LAWRENCE       PTCLDY    75  60  59 W6        29.94R                  
BEDFORD        PTCLDY    71  60  68 W5        29.92R                  
NORWOOD        PTCLDY    75  63  66 W7        29.93R                  
MARSHFIELD     MOCLDY    75  61  60 W5        29.92R                  
PLYMOUTH       CLOUDY    76  58  53 W6        29.93R                  
TAUNTON        MOCLDY    75  58  55 W3        29.93R                  
NEW BEDFORD    CLOUDY    77  60  55 NW5       29.93R                  
$$

MAZALL-190300-
CAPE COD AND THE ISLANDS
  
CITY           SKY/WX    TMP DP  RH WIND       PRES   REMARKS
FALMOUTH       CLEAR     75  63  64 W5        29.93R                  
HYANNIS        CLOUDY    77  63  61 NW3       29.91R                  
CHATHAM        MOCLDY    77  72  84 VRB3      29.92R                  
PROVINCETOWN   CLOUDY    74  65  73 W6        29.92R                  
NANTUCKET      MOCLDY    73  70  90 SW6       29.93R                  
MARTHAS VNYRD  CLOUDY    75  64  68 NW6       29.93R                  
$$
 
MAZALL-190300-
CENTRAL AND WESTERN MASSACHUSETTS
  
CITY           SKY/WX    TMP DP  RH WIND       PRES   REMARKS
WORCESTER      PTCLDY    71  56  58 NW9       29.98R                  
FITCHBURG      PTCLDY    72  60  66 NW5       29.96R                  
ORANGE           N/A     66  62  87 CALM      29.98R                  
SPRINGFIELD    MOCLDY    72  57  60 N7        29.94R                  
WESTFIELD      PTCLDY    73  56  54 NW9       29.97R                  
NORTH ADAMS    MOCLDY    64  61  90 CALM      30.00R                  
PITTSFIELD     CLEAR     64  52  64 W7        30.02R                  
$$
 
RIZALL-190300-
RHODE ISLAND
  
CITY           SKY/WX    TMP DP  RH WIND       PRES   REMARKS
PROVIDENCE     MOCLDY    74  59  59 W6        29.95R                  
NEWPORT        MOCLDY    74  60  61 NW7       29.95R                  
BLOCK ISLAND   CLOUDY    72  65  78 W6          N/A                   
SMITHFIELD     PTCLDY    69  60  73 W3        29.97R                  
WESTERLY       MOCLDY    75  61  61 N3        29.95R                  
$$
 
CTZALL-190300-
CONNECTICUT
  
CITY           SKY/WX    TMP DP  RH WIND       PRES   REMARKS
BRADLEY INTL   MOCLDY    73  61  65 W3        29.97R                  
HARTFORD       PTCLDY    77  57  50 NW6       29.96R                  
PLAINVILLE     MOCLDY    73  61  67 NW3       29.98R                  
BRIDGEPORT     PTCLDY    77  61  57 N6        29.97R                  
DANBURY        MOCLDY    70  64  81 CALM      30.01R                  
GROTON         MOCLDY    74  63  68 N6        29.94R                  
NEW HAVEN      PTCLDY    77  63  61 N5        29.97R                  
CHESTER        PTCLDY    72  61  68 NW5       29.98R                  
MERIDEN        PTCLDY    71  61  70 CALM      29.98R                  
WILLIMANTIC    PTCLDY    69  62  78 CALM      29.98R                  
OXFORD         MOCLDY    70  60  70 N7        30.01R                  
$$

MEZ002-015-021-024-NHZ003-005-008-011-012-014-VTZ005-008-190300-
NORTHERN NEW ENGLAND
  
CITY           SKY/WX    TMP DP  RH WIND       PRES   REMARKS
PORTLAND ME    PTCLDY    72  55  55 NW6       29.91R                  
BANGOR ME      MOCLDY    72  54  53 NW8       29.88R                  
CONCORD NH     PTCLDY    71  57  61 NW5       29.94R                  
MANCHESTER NH  MOCLDY    76  54  46 W3        29.92R                  
NASHUA NH      PTCLDY    73  60  63 NW3       29.94R                  
PORTSMOUTH NH  MOCLDY    74  59  58 NW8       29.91R                  
JAFFREY NH     PTCLDY    70  60  70 CALM      29.99R                  
KEENE NH       PTCLDY    67  60  78 SE3       29.97R                  
BURLINGTON VT  PTCLDY    68  54  60 N7        30.01R                  
MT. WASHINGTON FOG       45  45 100 NW54G63     N/A  VSB 0   WCI  32  
$$

NYZ052-076-190300-
EASTERN NEW YORK
  
CITY           SKY/WX    TMP DP  RH WIND       PRES   REMARKS
ALBANY         PTCLDY    70  54  56 W13       30.00R                  
NEW YORK CITY  MOCLDY    80  55  42 NW14      29.97R                  
$$
 
ANZALL-190300-
MARINE OBSERVATIONS
  
STATION/POSITION TIME  TEMP    WIND        PRES    VSBY  WAVE
                       AIR SEA DIR/SP/G                  HT/PER
                 (UTC) (F)     (DEG/KT/KT) (MB)    (MI)  (FT/S)
BOSTON BUOY      0150   68 63  250/  8/  8 1013.0R         1/ 9
BUZZARDS BAY     0100   77     310/ 10/ 11 1013.4R
NANTUCKET SOUND  0150   78 76  280/ 12/ 12 1012.5R         1/ 8
MASS BAY-STELLWA 0004   69 63  270/  6/  6 1011.4R  1 7/8  2/ 8
ISLE OF SHOALS   0100   79     290/ 12/ 12 1011.3R
S OF BLOCK IS    0156      74                N/A           6/ 8
$$

......................KEY.........................
  SKY/WX - SKY CONDITION/PRESENT WEATHER
  TMP    - TEMPERATURE IN FAHRENHEIT
  DWPT   - DEWPOINT IN FAHRENHEIT
  RH     - RELATIVE HUMIDITY IN PERCENT
  WIND   - DIRECTION AND SPEED IN MPH
  PRES   - MEAN SEA LEVEL PRESSURE IN INCHES OF HG
  WCI    - WIND CHILL INDEX
  VSB    - VISIBILITY IN MILES
  HX     - HEAT INDEX
  TC     - TEMPERATURE IN CELSIUS
  VRB    - VARIABLE WIND DIRECTION
  N/A    - NOT AVAILABLE
  
      

Other recent Regional Weather Roundups

Thu Jul 25, 12:10pm EDT

Thu Jul 25, 11:10am EDT

Thu Jul 25, 10:10am EDT

Thu Jul 25, 9:10am EDT

Thu Jul 25, 8:10am EDT

Thu Jul 25, 7:10am EDT

Thu Jul 25, 6:10am EDT

Thu Jul 25, 5:10am EDT

Thu Jul 25, 4:10am EDT

Thu Jul 25, 3:10am EDT

Thu Jul 25, 2:10am EDT

Thu Jul 25, 1:10am EDT

Thu Jul 25, 12:10am EDT

Wed Jul 24, 11:10pm EDT

Wed Jul 24, 10:10pm EDT

Wed Jul 24, 9:10pm EDT

Wed Jul 24, 8:10pm EDT

Wed Jul 24, 7:10pm EDT

Wed Jul 24, 6:10pm EDT

Wed Jul 24, 5:10pm EDT

Wed Jul 24, 4:10pm EDT

Wed Jul 24, 3:10pm EDT

Wed Jul 24, 2:10pm EDT

Wed Jul 24, 1:10pm EDT

Wed Jul 24, 12:10pm EDT

Wed Jul 24, 11:10am EDT

Wed Jul 24, 10:10am EDT

Wed Jul 24, 9:10am EDT

Wed Jul 24, 8:10am EDT

Wed Jul 24, 7:10am EDT

Wed Jul 24, 6:10am EDT

Wed Jul 24, 5:10am EDT

Wed Jul 24, 4:10am EDT

Wed Jul 24, 3:10am EDT

Wed Jul 24, 2:10am EDT

Wed Jul 24, 1:10am EDT

Wed Jul 24, 12:10am EDT

Tue Jul 23, 11:10pm EDT

Tue Jul 23, 10:10pm EDT

Tue Jul 23, 9:10pm EDT

Tue Jul 23, 8:10pm EDT

Tue Jul 23, 7:10pm EDT

Tue Jul 23, 6:10pm EDT

Tue Jul 23, 5:10pm EDT

Tue Jul 23, 4:10pm EDT

Tue Jul 23, 3:10pm EDT

Tue Jul 23, 2:10pm EDT

Tue Jul 23, 1:10pm EDT

Tue Jul 23, 12:10pm EDT

Tue Jul 23, 11:10am EDT

Tue Jul 23, 10:10am EDT

Tue Jul 23, 10:10am EDT

Tue Jul 23, 9:10am EDT

Tue Jul 23, 8:10am EDT

Tue Jul 23, 7:10am EDT

Tue Jul 23, 6:10am EDT

Tue Jul 23, 5:10am EDT

Tue Jul 23, 4:10am EDT

Tue Jul 23, 3:10am EDT

Tue Jul 23, 2:10am EDT

Tue Jul 23, 1:10am EDT

Tue Jul 23, 12:10am EDT

Mon Jul 22, 11:10pm EDT

Mon Jul 22, 10:10pm EDT

Mon Jul 22, 9:10pm EDT

Mon Jul 22, 8:10pm EDT

Mon Jul 22, 7:10pm EDT

Mon Jul 22, 6:10pm EDT

Mon Jul 22, 5:10pm EDT

Mon Jul 22, 4:10pm EDT

Mon Jul 22, 3:10pm EDT

Mon Jul 22, 2:10pm EDT

Mon Jul 22, 1:10pm EDT

Mon Jul 22, 12:10pm EDT

Mon Jul 22, 11:10am EDT

Mon Jul 22, 10:10am EDT

Mon Jul 22, 9:10am EDT

Mon Jul 22, 8:10am EDT

Mon Jul 22, 7:10am EDT

Mon Jul 22, 6:10am EDT

Mon Jul 22, 5:10am EDT

Mon Jul 22, 4:10am EDT

Mon Jul 22, 3:10am EDT

Mon Jul 22, 2:10am EDT

Mon Jul 22, 1:10am EDT

Mon Jul 22, 12:10am EDT

Sun Jul 21, 11:10pm EDT

Sun Jul 21, 10:10pm EDT

Sun Jul 21, 9:10pm EDT

Sun Jul 21, 8:10pm EDT

Sun Jul 21, 7:10pm EDT

Sun Jul 21, 6:10pm EDT

Sun Jul 21, 5:10pm EDT

Sun Jul 21, 4:10pm EDT

Sun Jul 21, 3:10pm EDT

Sun Jul 21, 2:10pm EDT

Sun Jul 21, 1:10pm EDT

Sun Jul 21, 12:10pm EDT

Sun Jul 21, 11:10am EDT

Sun Jul 21, 10:10am EDT

Sun Jul 21, 9:10am EDT

Sun Jul 21, 8:10am EDT

Sun Jul 21, 7:10am EDT

Sun Jul 21, 6:10am EDT

Sun Jul 21, 5:10am EDT

Sun Jul 21, 4:10am EDT

Sun Jul 21, 3:10am EDT

Sun Jul 21, 2:10am EDT

Sun Jul 21, 1:10am EDT

Sun Jul 21, 12:10am EDT

Sat Jul 20, 11:10pm EDT

Sat Jul 20, 10:10pm EDT

Sat Jul 20, 9:10pm EDT

Sat Jul 20, 8:10pm EDT

Sat Jul 20, 7:10pm EDT

Sat Jul 20, 6:10pm EDT

Sat Jul 20, 5:10pm EDT

Sat Jul 20, 4:10pm EDT

Sat Jul 20, 3:10pm EDT

Sat Jul 20, 2:10pm EDT

Sat Jul 20, 1:10pm EDT

Sat Jul 20, 12:10pm EDT

Sat Jul 20, 11:10am EDT

Sat Jul 20, 10:10am EDT

Sat Jul 20, 9:10am EDT

Sat Jul 20, 8:10am EDT

Sat Jul 20, 7:10am EDT

Sat Jul 20, 6:10am EDT

Sat Jul 20, 5:10am EDT

Sat Jul 20, 4:10am EDT

Sat Jul 20, 3:10am EDT

Sat Jul 20, 2:10am EDT

Sat Jul 20, 1:10am EDT

Sat Jul 20, 12:10am EDT

Fri Jul 19, 11:10pm EDT

Fri Jul 19, 10:10pm EDT

Fri Jul 19, 9:10pm EDT

Fri Jul 19, 8:10pm EDT

Fri Jul 19, 7:10pm EDT

Fri Jul 19, 6:10pm EDT

Fri Jul 19, 5:10pm EDT

Fri Jul 19, 4:10pm EDT

Fri Jul 19, 3:10pm EDT

Fri Jul 19, 2:10pm EDT

Fri Jul 19, 1:10pm EDT

Fri Jul 19, 12:10pm EDT

Fri Jul 19, 11:10am EDT

Fri Jul 19, 10:10am EDT

Fri Jul 19, 9:10am EDT

Fri Jul 19, 8:10am EDT

Fri Jul 19, 7:10am EDT

Fri Jul 19, 6:10am EDT

Fri Jul 19, 5:10am EDT

Fri Jul 19, 4:10am EDT

Fri Jul 19, 3:10am EDT

Fri Jul 19, 2:10am EDT

Fri Jul 19, 1:10am EDT

Fri Jul 19, 12:10am EDT

Thu Jul 18, 11:10pm EDT

Thu Jul 18, 9:10pm EDT

Thu Jul 18, 8:10pm EDT

Thu Jul 18, 7:10pm EDT

Thu Jul 18, 6:10pm EDT

Thu Jul 18, 5:10pm EDT

Thu Jul 18, 4:10pm EDT

Thu Jul 18, 3:10pm EDT

Thu Jul 18, 2:10pm EDT

Thu Jul 18, 1:10pm EDT